| time (UTC) | temp C | wind direction | speed KPH | gust KPH | rain 1hr cm | rain 24hr cm | rain mn cm | humidity % | barometer mb |
| 20260504151004 | 20 | 223 | 0.0 | 3.2 | 0.00 | 0.00 | 0.00 | 45 | 1019.0 |
| 20260504150504 | 20 | 222 | 0.0 | 3.2 | 0.00 | 0.00 | 0.00 | 47 | 1019.1 |
| 20260504141004 | 17 | 219 | 0.0 | 0.0 | 0.00 | 0.00 | 0.00 | 53 | 1019.0 |
| 20260504140504 | 16 | 236 | 0.0 | 0.0 | 0.00 | 0.00 | 0.00 | 51 | 1019.0 |
| 20260504130504 | 11 | 257 | 0.0 | 0.0 | 0.00 | 0.00 | 0.00 | 76 | 1019.0 |
| 20260504100504 | 2 | 257 | 0.0 | 0.0 | 0.00 | 0.00 | 0.00 | 93 | 1018.6 |
| 20260504081003 | 3 | 257 | 0.0 | 0.0 | 0.00 | 0.00 | 0.00 | 92 | 1018.7 |
| 20260504080504 | 3 | 257 | 0.0 | 0.0 | 0.00 | 0.00 | 0.00 | 92 | 1018.7 |
| 20260504050004 | 6 | 257 | 0.0 | 3.2 | 0.00 | 0.00 | 0.00 | 86 | 1018.8 |
| 20260504045504 | 6 | 257 | 1.6 | 3.2 | 0.00 | 0.00 | 0.00 | 85 | 1018.9 |
| 20260504045003 | 6 | 257 | 0.0 | 0.0 | 0.00 | 0.00 | 0.00 | 85 | 1018.8 |
| 20260504044003 | 6 | 257 | 0.0 | 0.0 | 0.00 | 0.00 | 0.00 | 85 | 1018.8 |
| 20260504043503 | 6 | 257 | 0.0 | 0.0 | 0.00 | 0.00 | 0.00 | 85 | 1018.8 |
| 20260504043004 | 6 | 257 | 0.0 | 1.6 | 0.00 | 0.00 | 0.00 | 85 | 1018.8 |
| 20260504042504 | 6 | 257 | 0.0 | 1.6 | 0.00 | 0.00 | 0.00 | 85 | 1018.9 |
| 20260504042004 | 6 | 257 | 0.0 | 0.0 | 0.00 | 0.00 | 0.00 | 84 | 1019.0 |
| 20260504041504 | 6 | 257 | 0.0 | 0.0 | 0.00 | 0.00 | 0.00 | 84 | 1018.9 |
| 20260504041004 | 6 | 257 | 0.0 | 0.0 | 0.00 | 0.00 | 0.00 | 83 | 1018.8 |
| 20260504040503 | 6 | 257 | 0.0 | 0.0 | 0.00 | 0.00 | 0.00 | 83 | 1018.8 |
| 20260504040004 | 6 | 257 | 0.0 | 0.0 | 0.00 | 0.00 | 0.00 | 82 | 1018.7 |
| 20260504035503 | 6 | 257 | 0.0 | 0.0 | 0.00 | 0.00 | 0.00 | 81 | 1018.7 |
| 20260504035004 | 6 | 257 | 0.0 | 0.0 | 0.00 | 0.00 | 0.00 | 82 | 1018.6 |
| 20260504034504 | 6 | 257 | 0.0 | 0.0 | 0.00 | 0.00 | 0.00 | 81 | 1018.5 |
| 20260504034004 | 7 | 257 | 0.0 | 0.0 | 0.00 | 0.00 | 0.00 | 81 | 1018.5 |
| 20260504033505 | 7 | 257 | 0.0 | 0.0 | 0.00 | 0.00 | 0.00 | 81 | 1018.5 |
| 20260504033004 | 7 | 257 | 0.0 | 0.0 | 0.00 | 0.00 | 0.00 | 80 | 1018.6 |
| 20260504032504 | 7 | 257 | 0.0 | 0.0 | 0.00 | 0.00 | 0.00 | 80 | 1018.6 |
| 20260504032004 | 7 | 257 | 0.0 | 0.0 | 0.00 | 0.00 | 0.00 | 80 | 1018.6 |
| 20260504031503 | 7 | 257 | 0.0 | 0.0 | 0.00 | 0.00 | 0.00 | 80 | 1018.8 |
| 20260504030503 | 7 | 257 | 0.0 | 0.0 | 0.00 | 0.00 | 0.00 | 79 | 1018.7 |
| 20260504030004 | 7 | 257 | 0.0 | 0.0 | 0.00 | 0.00 | 0.00 | 78 | 1018.8 |
| 20260504025504 | 7 | 257 | 0.0 | 0.0 | 0.00 | 0.00 | 0.00 | 78 | 1018.8 |
| 20260504025004 | 7 | 257 | 0.0 | 0.0 | 0.00 | 0.00 | 0.00 | 78 | 1018.7 |
| 20260504024504 | 7 | 257 | 0.0 | 0.0 | 0.00 | 0.00 | 0.00 | 77 | 1018.7 |
| 20260504024003 | 8 | 257 | 0.0 | 0.0 | 0.00 | 0.00 | 0.00 | 77 | 1018.8 |
| 20260504023505 | 8 | 257 | 0.0 | 0.0 | 0.00 | 0.00 | 0.00 | 76 | 1018.9 |
| 20260504023003 | 8 | 257 | 0.0 | 0.0 | 0.00 | 0.00 | 0.00 | 76 | 1018.8 |
| 20260504022504 | 8 | 257 | 0.0 | 0.0 | 0.00 | 0.00 | 0.00 | 75 | 1018.9 |
| 20260504022004 | 9 | 257 | 0.0 | 0.0 | 0.00 | 0.00 | 0.00 | 73 | 1018.7 |
| 20260504021504 | 9 | 257 | 0.0 | 0.0 | 0.00 | 0.00 | 0.00 | 71 | 1018.7 |
| 20260504020504 | 10 | 257 | 0.0 | 0.0 | 0.00 | 0.00 | 0.00 | 72 | 1018.5 |
| 20260504015503 | 10 | 257 | 0.0 | 1.6 | 0.00 | 0.00 | 0.00 | 71 | 1018.3 |
| 20260504015004 | 10 | 257 | 0.0 | 1.6 | 0.00 | 0.00 | 0.00 | 70 | 1018.1 |
| 20260504014004 | 10 | 257 | 0.0 | 0.0 | 0.00 | 0.00 | 0.00 | 70 | 1018.0 |
| 20260504013504 | 10 | 257 | 0.0 | 0.0 | 0.00 | 0.00 | 0.00 | 70 | 1017.8 |
| 20260504013003 | 10 | 257 | 0.0 | 0.0 | 0.00 | 0.00 | 0.00 | 69 | 1017.8 |
| 20260504012503 | 10 | 257 | 0.0 | 0.0 | 0.00 | 0.00 | 0.00 | 69 | 1017.7 |
| 20260504012004 | 10 | 257 | 0.0 | 0.0 | 0.00 | 0.00 | 0.00 | 68 | 1017.8 |
| 20260504011003 | 10 | 257 | 0.0 | 0.0 | 0.00 | 0.00 | 0.00 | 66 | 1017.7 |
| 20260504010503 | 10 | 257 | 0.0 | 0.0 | 0.00 | 0.00 | 0.00 | 67 | 1017.6 |
| 20260504010005 | 10 | 257 | 0.0 | 0.0 | 0.00 | 0.00 | 0.00 | 66 | 1017.5 |
| 20260504005504 | 10 | 257 | 0.0 | 0.0 | 0.00 | 0.00 | 0.00 | 65 | 1017.5 |
| 20260504005004 | 11 | 257 | 0.0 | 0.0 | 0.00 | 0.00 | 0.00 | 65 | 1017.5 |
| 20260504004503 | 11 | 257 | 0.0 | 0.0 | 0.00 | 0.00 | 0.00 | 66 | 1017.5 |
| 20260504004003 | 11 | 257 | 0.0 | 0.0 | 0.00 | 0.00 | 0.00 | 63 | 1017.4 |
| 20260504003504 | 11 | 257 | 0.0 | 0.0 | 0.00 | 0.00 | 0.00 | 63 | 1017.5 |
| 20260504002503 | 12 | 257 | 0.0 | 0.0 | 0.00 | 0.00 | 0.00 | 60 | 1017.4 |
| 20260504001504 | 12 | 257 | 0.0 | 0.0 | 0.00 | 0.00 | 0.00 | 57 | 1017.3 |
| 20260504001004 | 13 | 257 | 0.0 | 0.0 | 0.00 | 0.00 | 0.00 | 56 | 1017.2 |
| 20260504000503 | 13 | 257 | 0.0 | 0.0 | 0.00 | 0.00 | 0.00 | 56 | 1017.2 |
| 20260504000004 | 13 | 257 | 0.0 | 0.0 | 0.00 | 0.00 | 0.00 | 56 | 1017.1 |
| 20260503235503 | 14 | 257 | 0.0 | 0.0 | 0.00 | 0.00 | 0.00 | 52 | 1017.1 |
| 20260503235003 | 15 | 257 | 0.0 | 0.0 | 0.00 | 0.00 | 0.00 | 52 | 1017.2 |
| 20260503234503 | 15 | 257 | 0.0 | 3.2 | 0.00 | 0.00 | 0.00 | 45 | 1017.2 |
| 20260503234004 | 16 | 254 | 0.0 | 1.6 | 0.00 | 0.00 | 0.00 | 42 | 1017.2 |
| 20260503233504 | 16 | 254 | 0.0 | 3.2 | 0.00 | 0.00 | 0.00 | 43 | 1017.2 |
| 20260503233004 | 16 | 249 | 0.0 | 3.2 | 0.00 | 0.00 | 0.00 | 39 | 1017.2 |
| 20260503232503 | 16 | 241 | 0.0 | 4.8 | 0.00 | 0.00 | 0.00 | 40 | 1017.1 |
| 20260503231504 | 17 | 226 | 1.6 | 4.8 | 0.00 | 0.00 | 0.00 | 37 | 1017.1 |
| 20260503231003 | 17 | 142 | 3.2 | 8.0 | 0.00 | 0.00 | 0.00 | 37 | 1017.1 |
| 20260503230503 | 17 | 238 | 1.6 | 4.8 | 0.00 | 0.00 | 0.00 | 37 | 1017.2 |
| 20260503230004 | 17 | 229 | 3.2 | 8.0 | 0.00 | 0.00 | 0.00 | 37 | 1017.2 |
| 20260503225504 | 17 | 227 | 0.0 | 4.8 | 0.00 | 0.00 | 0.00 | 36 | 1017.1 |
| 20260503225004 | 17 | 235 | 0.0 | 3.2 | 0.00 | 0.00 | 0.00 | 35 | 1017.1 |
| 20260503224504 | 17 | 199 | 1.6 | 4.8 | 0.00 | 0.00 | 0.00 | 36 | 1017.2 |
| 20260503223003 | 17 | 234 | 0.0 | 0.0 | 0.00 | 0.00 | 0.00 | 34 | 1017.1 |
| 20260503222504 | 17 | 234 | 0.0 | 1.6 | 0.00 | 0.00 | 0.00 | 34 | 1017.1 |
| 20260503222004 | 17 | 234 | 0.0 | 4.8 | 0.00 | 0.00 | 0.00 | 33 | 1017.1 |
| 20260503221503 | 17 | 157 | 0.0 | 3.2 | 0.00 | 0.00 | 0.00 | 32 | 1017.2 |
| 20260503220504 | 17 | 157 | 0.0 | 1.6 | 0.00 | 0.00 | 0.00 | 32 | 1017.4 |
| 20260503220004 | 17 | 157 | 0.0 | 1.6 | 0.00 | 0.00 | 0.00 | 36 | 1017.5 |
| 20260503215504 | 17 | 129 | 0.0 | 4.8 | 0.00 | 0.00 | 0.00 | 33 | 1017.5 |
| 20260503215004 | 17 | 199 | 0.0 | 1.6 | 0.00 | 0.00 | 0.00 | 32 | 1017.5 |
| 20260503214505 | 17 | 199 | 0.0 | 1.6 | 0.00 | 0.00 | 0.00 | 34 | 1017.6 |
| 20260503213504 | 17 | 313 | 0.0 | 3.2 | 0.00 | 0.00 | 0.00 | 31 | 1017.7 |
| 20260503213004 | 17 | 313 | 0.0 | 3.2 | 0.00 | 0.00 | 0.00 | 34 | 1017.7 |
| 20260503212504 | 17 | 162 | 0.0 | 4.8 | 0.00 | 0.00 | 0.00 | 34 | 1017.7 |
| 20260503212004 | 17 | 283 | 0.0 | 0.0 | 0.00 | 0.00 | 0.00 | 32 | 1017.8 |
| 20260503211503 | 18 | 283 | 0.0 | 0.0 | 0.00 | 0.00 | 0.00 | 36 | 1017.9 |
| 20260503211003 | 18 | 279 | 0.0 | 0.0 | 0.00 | 0.00 | 0.00 | 32 | 1017.9 |
| 20260503210503 | 17 | 279 | 0.0 | 3.2 | 0.00 | 0.00 | 0.00 | 31 | 1018.0 |
| 20260503205004 | 17 | 176 | 3.2 | 4.8 | 0.00 | 0.00 | 0.00 | 30 | 1018.0 |
| 20260503204004 | 17 | 267 | 0.0 | 4.8 | 0.00 | 0.00 | 0.00 | 31 | 1018.1 |
| 20260503203503 | 17 | 265 | 1.6 | 4.8 | 0.00 | 0.00 | 0.00 | 30 | 1018.2 |
| 20260503203003 | 17 | 211 | 1.6 | 9.7 | 0.00 | 0.00 | 0.00 | 28 | 1018.4 |
| 20260503202503 | 17 | 232 | 1.6 | 3.2 | 0.00 | 0.00 | 0.00 | 32 | 1018.4 |
| 20260503202004 | 17 | 234 | 1.6 | 4.8 | 0.00 | 0.00 | 0.00 | 33 | 1018.4 |
| 20260503201504 | 17 | 214 | 1.6 | 4.8 | 0.00 | 0.00 | 0.00 | 31 | 1018.5 |
| 20260503201004 | 17 | 181 | 1.6 | 11.3 | 0.00 | 0.00 | 0.00 | 31 | 1018.6 |
| 20260503200504 | 17 | 113 | 0.0 | 1.6 | 0.00 | 0.00 | 0.00 | 32 | 1018.6 |
| 20260503200003 | 17 | 112 | 3.2 | 4.8 | 0.00 | 0.00 | 0.00 | 30 | 1018.7 |
| 20260503195503 | 17 | 220 | 0.0 | 3.2 | 0.00 | 0.00 | 0.00 | 33 | 1018.8 |
| 20260503195003 | 17 | 147 | 3.2 | 11.3 | 0.00 | 0.00 | 0.00 | 31 | 1018.9 |
| 20260503194504 | 17 | 339 | 1.6 | 9.7 | 0.00 | 0.00 | 0.00 | 32 | 1018.9 |
| 20260503194004 | 17 | 332 | 1.6 | 4.8 | 0.00 | 0.00 | 0.00 | 31 | 1019.0 |
| 20260503193504 | 17 | 327 | 0.0 | 1.6 | 0.00 | 0.00 | 0.00 | 33 | 1019.1 |
| 20260503193004 | 17 | 355 | 0.0 | 1.6 | 0.00 | 0.00 | 0.00 | 31 | 1019.2 |
| 20260503192504 | 17 | 265 | 1.6 | 4.8 | 0.00 | 0.00 | 0.00 | 34 | 1019.1 |
| 20260503192004 | 17 | 272 | 1.6 | 4.8 | 0.00 | 0.00 | 0.00 | 30 | 1019.3 |
| 20260503191004 | 17 | 290 | 1.6 | 4.8 | 0.00 | 0.00 | 0.00 | 33 | 1019.5 |
| 20260503190503 | 17 | 272 | 1.6 | 4.8 | 0.00 | 0.00 | 0.00 | 34 | 1019.5 |
| 20260503190005 | 16 | 153 | 1.6 | 4.8 | 0.00 | 0.00 | 0.00 | 32 | 1019.7 |
| 20260503185503 | 17 | 289 | 1.6 | 3.2 | 0.00 | 0.00 | 0.00 | 33 | 1019.7 |
| 20260503185004 | 17 | 288 | 1.6 | 4.8 | 0.00 | 0.00 | 0.00 | 32 | 1019.8 |
| 20260503184504 | 17 | 311 | 1.6 | 4.8 | 0.00 | 0.00 | 0.00 | 32 | 1019.8 |
| 20260503184004 | 17 | 57 | 3.2 | 4.8 | 0.00 | 0.00 | 0.00 | 34 | 1019.8 |
| 20260503183504 | 17 | 188 | 1.6 | 4.8 | 0.00 | 0.00 | 0.00 | 30 | 1019.9 |
| 20260503183004 | 16 | 291 | 0.0 | 1.6 | 0.00 | 0.00 | 0.00 | 32 | 1020.0 |
| 20260503182505 | 16 | 291 | 1.6 | 4.8 | 0.00 | 0.00 | 0.00 | 30 | 1020.0 |
| 20260503182005 | 17 | 304 | 1.6 | 4.8 | 0.00 | 0.00 | 0.00 | 31 | 1020.2 |
| 20260503181504 | 17 | 15 | 1.6 | 4.8 | 0.00 | 0.00 | 0.00 | 31 | 1020.3 |
| 20260503181003 | 17 | 136 | 1.6 | 3.2 | 0.00 | 0.00 | 0.00 | 33 | 1020.3 |
| 20260503180503 | 17 | 157 | 0.0 | 4.8 | 0.00 | 0.00 | 0.00 | 35 | 1020.4 |
| 20260503180004 | 16 | 239 | 1.6 | 4.8 | 0.00 | 0.00 | 0.00 | 33 | 1020.5 |
| 20260503175504 | 16 | 236 | 1.6 | 4.8 | 0.00 | 0.00 | 0.00 | 35 | 1020.5 |
| 20260503175004 | 16 | 269 | 1.6 | 4.8 | 0.00 | 0.00 | 0.00 | 33 | 1020.6 |
| 20260503174504 | 16 | 63 | 3.2 | 11.3 | 0.00 | 0.00 | 0.00 | 35 | 1020.5 |
| 20260503174005 | 16 | 214 | 0.0 | 4.8 | 0.00 | 0.00 | 0.00 | 35 | 1020.6 |
| 20260503173503 | 16 | 24 | 0.0 | 3.2 | 0.00 | 0.00 | 0.00 | 33 | 1020.7 |
| 20260503172504 | 16 | 146 | 1.6 | 3.2 | 0.00 | 0.00 | 0.00 | 35 | 1020.7 |
| 20260503172005 | 16 | 202 | 0.0 | 0.0 | 0.00 | 0.00 | 0.00 | 34 | 1020.7 |
| 20260503171503 | 16 | 161 | 0.0 | 0.0 | 0.00 | 0.00 | 0.00 | 35 | 1020.7 |
| 20260503171004 | 16 | 159 | 0.0 | 3.2 | 0.00 | 0.00 | 0.00 | 36 | 1020.9 |
| 20260503170503 | 16 | 123 | 1.6 | 4.8 | 0.00 | 0.00 | 0.00 | 33 | 1020.9 |